Year,Month,Day,Hour,Minute,Value (Times are PST for temperature in C)
2009,11,17,00,00,8.00
2009,11,17,00,01,8.00
2009,11,17,00,02,8.10
2009,11,17,00,03,8.10
2009,11,17,00,04,8.10
2009,11,17,00,05,8.20
2009,11,17,00,06,8.20
2009,11,17,00,07,8.20
2009,11,17,00,08,8.30
2009,11,17,00,09,8.30
2009,11,17,00,10,8.30
2009,11,17,00,11,8.30
2009,11,17,00,12,8.30
2009,11,17,00,13,8.30
2009,11,17,00,14,8.40
2009,11,17,00,15,8.40
2009,11,17,00,16,8.40
2009,11,17,00,17,8.40
2009,11,17,00,18,8.40
2009,11,17,00,19,8.40
2009,11,17,00,20,8.40
2009,11,17,00,21,8.40
2009,11,17,00,22,8.30
2009,11,17,00,23,8.30
2009,11,17,00,24,8.20
2009,11,17,00,25,8.20
2009,11,17,00,26,8.10
2009,11,17,00,27,8.10
2009,11,17,00,28,8.00
2009,11,17,00,29,8.00
2009,11,17,00,30,7.90
2009,11,17,00,31,7.90
2009,11,17,00,32,7.80
2009,11,17,00,33,7.80
2009,11,17,00,34,7.70
2009,11,17,00,35,7.70
2009,11,17,00,36,7.60
2009,11,17,00,37,7.60
2009,11,17,00,38,7.50
2009,11,17,00,39,7.50
2009,11,17,00,40,7.40
2009,11,17,00,41,7.40
2009,11,17,00,42,7.30
2009,11,17,00,43,7.30
2009,11,17,00,44,7.20
2009,11,17,00,45,7.20
2009,11,17,00,46,7.20
2009,11,17,00,47,7.20
2009,11,17,00,48,7.10
2009,11,17,00,49,7.10
2009,11,17,00,50,7.10
2009,11,17,00,51,7.00
2009,11,17,00,52,7.00
2009,11,17,00,53,7.00
2009,11,17,00,54,6.90
2009,11,17,00,55,6.90
2009,11,17,00,56,6.90
2009,11,17,00,57,6.90
2009,11,17,00,58,6.90
2009,11,17,00,59,6.90
2009,11,17,01,00,6.90
2009,11,17,01,01,6.90
2009,11,17,01,02,6.90
2009,11,17,01,03,6.90
2009,11,17,01,04,6.90
2009,11,17,01,05,6.80
2009,11,17,01,06,6.80
2009,11,17,01,07,6.80
2009,11,17,01,08,6.80
2009,11,17,01,09,6.80
2009,11,17,01,10,6.80
2009,11,17,01,11,6.80
2009,11,17,01,12,6.80
2009,11,17,01,13,6.80
2009,11,17,01,14,6.80
2009,11,17,01,15,6.80
2009,11,17,01,16,6.80
2009,11,17,01,17,6.70
2009,11,17,01,18,6.70
2009,11,17,01,19,6.70
2009,11,17,01,20,6.70
2009,11,17,01,21,6.70
2009,11,17,01,22,6.70
2009,11,17,01,23,6.70
2009,11,17,01,24,6.70
2009,11,17,01,25,6.70
2009,11,17,01,26,6.70
2009,11,17,01,27,6.70
2009,11,17,01,28,6.60
2009,11,17,01,29,6.60
2009,11,17,01,30,6.60
2009,11,17,01,31,6.60
2009,11,17,01,32,6.60
2009,11,17,01,33,6.60
2009,11,17,01,34,6.60
2009,11,17,01,35,6.60
2009,11,17,01,36,6.60
2009,11,17,01,37,6.50
2009,11,17,01,38,6.50
2009,11,17,01,39,6.50
2009,11,17,01,40,6.50
2009,11,17,01,41,6.50
2009,11,17,01,42,6.60
2009,11,17,01,43,6.60
2009,11,17,01,44,6.50
2009,11,17,01,45,6.50
2009,11,17,01,46,6.50
2009,11,17,01,47,6.50
2009,11,17,01,48,6.50
2009,11,17,01,49,6.50
2009,11,17,01,50,6.50
2009,11,17,01,51,6.50
2009,11,17,01,52,6.50
2009,11,17,01,53,6.50
2009,11,17,01,54,6.50
2009,11,17,01,55,6.50
2009,11,17,01,56,6.50
2009,11,17,01,57,6.50
2009,11,17,01,58,6.50
2009,11,17,01,59,6.50
2009,11,17,02,00,6.50
2009,11,17,02,01,6.50
2009,11,17,02,02,6.50
2009,11,17,02,03,6.60
2009,11,17,02,04,6.50
2009,11,17,02,05,6.50
2009,11,17,02,06,6.50
2009,11,17,02,07,6.50
2009,11,17,02,08,6.50
2009,11,17,02,09,6.50
2009,11,17,02,10,6.50
2009,11,17,02,11,6.50
2009,11,17,02,12,6.40
2009,11,17,02,13,6.40
2009,11,17,02,14,6.40
2009,11,17,02,15,6.40
2009,11,17,02,16,6.40
2009,11,17,02,17,6.40
2009,11,17,02,18,6.30
2009,11,17,02,19,6.30
2009,11,17,02,20,6.30
2009,11,17,02,21,6.30
2009,11,17,02,22,6.30
2009,11,17,02,23,6.30
2009,11,17,02,24,6.30
2009,11,17,02,25,6.30
2009,11,17,02,26,6.30
2009,11,17,02,27,6.30
2009,11,17,02,28,6.30
2009,11,17,02,29,6.30
2009,11,17,02,30,6.30
2009,11,17,02,31,6.30
2009,11,17,02,32,6.30
2009,11,17,02,33,6.30
2009,11,17,02,34,6.20
2009,11,17,02,35,6.20
2009,11,17,02,36,6.20
2009,11,17,02,37,6.20
2009,11,17,02,38,6.20
2009,11,17,02,39,6.20
2009,11,17,02,40,6.10
2009,11,17,02,41,6.20
2009,11,17,02,42,6.10
2009,11,17,02,43,6.10
2009,11,17,02,44,6.10
2009,11,17,02,45,6.10
2009,11,17,02,46,6.10
2009,11,17,02,47,6.10
2009,11,17,02,48,6.10
2009,11,17,02,49,6.10
2009,11,17,02,50,6.10
2009,11,17,02,51,6.10
2009,11,17,02,52,6.10
2009,11,17,02,53,6.10
2009,11,17,02,54,6.10
2009,11,17,02,55,6.20
2009,11,17,02,56,6.20
2009,11,17,02,57,6.20
2009,11,17,02,58,6.20
2009,11,17,02,59,6.20
2009,11,17,03,00,6.20
2009,11,17,03,01,6.20
2009,11,17,03,02,6.20
2009,11,17,03,03,6.20
2009,11,17,03,04,6.20
2009,11,17,03,05,6.20
2009,11,17,03,06,6.20
2009,11,17,03,07,6.20
2009,11,17,03,08,6.20
2009,11,17,03,09,6.20
2009,11,17,03,10,6.20
2009,11,17,03,11,6.20
2009,11,17,03,12,6.20
2009,11,17,03,13,6.30
2009,11,17,03,14,6.30
2009,11,17,03,15,6.30
2009,11,17,03,16,6.30
2009,11,17,03,17,6.30
2009,11,17,03,18,6.30
2009,11,17,03,19,6.30
2009,11,17,03,20,6.30
2009,11,17,03,21,6.30
2009,11,17,03,22,6.30
2009,11,17,03,23,6.30
2009,11,17,03,24,6.30
2009,11,17,03,25,6.30
2009,11,17,03,26,6.30
2009,11,17,03,27,6.30
2009,11,17,03,28,6.30
2009,11,17,03,29,6.30
2009,11,17,03,30,6.30
2009,11,17,03,31,6.30
2009,11,17,03,32,6.30
2009,11,17,03,33,6.30
2009,11,17,03,34,6.30
2009,11,17,03,35,6.40
2009,11,17,03,36,6.40
2009,11,17,04,02,6.40
2009,11,17,04,03,6.40
2009,11,17,04,04,6.50
2009,11,17,04,05,6.50
2009,11,17,04,06,6.50
2009,11,17,04,07,6.60
2009,11,17,04,08,6.60
2009,11,17,04,09,6.60
2009,11,17,04,10,6.60
2009,11,17,04,11,6.60
2009,11,17,04,12,6.60
2009,11,17,04,13,6.60
2009,11,17,04,14,6.60
2009,11,17,04,15,6.60
2009,11,17,04,16,6.60
2009,11,17,04,17,6.60
2009,11,17,04,18,6.60
2009,11,17,04,19,6.60
2009,11,17,04,20,6.70
2009,11,17,04,21,6.70
2009,11,17,04,22,6.70
2009,11,17,04,23,6.70
2009,11,17,04,24,6.60
2009,11,17,04,25,6.60
2009,11,17,04,26,6.60
2009,11,17,04,27,6.60
2009,11,17,04,28,6.70
2009,11,17,04,29,6.70
2009,11,17,04,30,6.70
2009,11,17,04,31,6.70
2009,11,17,04,32,6.70
2009,11,17,04,33,6.70
2009,11,17,04,34,6.70
2009,11,17,04,35,6.70
2009,11,17,04,36,6.70
2009,11,17,04,37,6.70
2009,11,17,04,38,6.70
2009,11,17,04,39,6.70
2009,11,17,04,40,6.70
2009,11,17,04,41,6.70
2009,11,17,04,42,6.70
2009,11,17,04,43,6.80
2009,11,17,04,44,6.80
2009,11,17,04,45,6.80
2009,11,17,04,46,6.80
2009,11,17,04,47,6.80
2009,11,17,04,48,6.80
2009,11,17,04,49,6.80
2009,11,17,04,50,6.80
2009,11,17,04,51,6.80
2009,11,17,04,52,6.80
2009,11,17,04,53,6.80
2009,11,17,04,54,6.80
2009,11,17,04,55,6.80
2009,11,17,04,56,6.80
2009,11,17,04,57,6.70
2009,11,17,04,58,6.70
2009,11,17,04,59,6.70
2009,11,17,05,00,6.60
2009,11,17,05,01,6.60
2009,11,17,05,02,6.60
2009,11,17,05,03,6.60
2009,11,17,05,04,6.70
2009,11,17,05,05,6.70
2009,11,17,05,06,6.70
2009,11,17,05,07,6.70
2009,11,17,05,08,6.70
2009,11,17,05,09,6.70
2009,11,17,05,10,6.70
2009,11,17,05,11,6.70
2009,11,17,05,12,6.70
2009,11,17,05,13,6.70
2009,11,17,05,14,6.70
2009,11,17,05,15,6.70
2009,11,17,05,16,6.70
2009,11,17,05,17,6.70
2009,11,17,05,18,6.70
2009,11,17,05,19,6.70
2009,11,17,05,20,6.70
2009,11,17,05,21,6.70
2009,11,17,05,22,6.80
2009,11,17,05,23,6.80
2009,11,17,05,24,6.80
2009,11,17,05,25,6.80
2009,11,17,05,26,6.80
2009,11,17,05,27,6.80
2009,11,17,05,28,6.80
2009,11,17,05,29,6.70
2009,11,17,05,30,6.70
2009,11,17,05,31,6.70
2009,11,17,05,32,6.70
2009,11,17,05,33,6.70
2009,11,17,05,34,6.70
2009,11,17,05,35,6.70
2009,11,17,05,36,6.70
2009,11,17,05,37,6.70
2009,11,17,05,38,6.60
2009,11,17,05,39,6.60
2009,11,17,05,40,6.60
2009,11,17,05,41,6.60
2009,11,17,05,42,6.50
2009,11,17,05,43,6.50
2009,11,17,05,44,6.50
2009,11,17,05,45,6.60
2009,11,17,05,46,6.60
2009,11,17,05,47,6.60
2009,11,17,05,48,6.60
2009,11,17,05,49,6.60
2009,11,17,05,50,6.60
2009,11,17,05,51,6.60
2009,11,17,05,52,6.60
2009,11,17,05,53,6.60
2009,11,17,05,54,6.60
2009,11,17,05,55,6.60
2009,11,17,05,56,6.60
2009,11,17,05,57,6.60
2009,11,17,05,58,6.60
2009,11,17,05,59,6.60
2009,11,17,06,00,6.60
2009,11,17,06,01,6.50
2009,11,17,06,02,6.50
2009,11,17,06,03,6.60
2009,11,17,06,04,6.60
2009,11,17,06,05,6.60
2009,11,17,06,06,6.60
2009,11,17,06,07,6.60
2009,11,17,06,08,6.60
2009,11,17,06,09,6.60
2009,11,17,06,10,6.60
2009,11,17,06,11,6.60
2009,11,17,06,12,6.50
2009,11,17,06,13,6.50
2009,11,17,06,14,6.40
2009,11,17,06,15,6.40
2009,11,17,06,16,6.40
2009,11,17,06,17,6.30
2009,11,17,06,18,6.30
2009,11,17,06,19,6.20
2009,11,17,06,20,6.20
2009,11,17,06,21,6.20
2009,11,17,06,22,6.20
2009,11,17,06,23,6.10
2009,11,17,06,24,6.10
2009,11,17,06,25,6.10
2009,11,17,06,26,6.10
2009,11,17,06,27,6.10
2009,11,17,06,28,6.10
2009,11,17,06,29,6.00
2009,11,17,06,30,6.00
2009,11,17,06,31,6.00
2009,11,17,06,32,6.00
2009,11,17,06,33,6.00
2009,11,17,06,34,6.00
2009,11,17,06,35,5.90
2009,11,17,06,36,5.90
2009,11,17,06,37,5.90
2009,11,17,06,38,5.90
2009,11,17,06,39,5.80
2009,11,17,06,40,5.80
2009,11,17,06,41,5.80
2009,11,17,06,42,5.80
2009,11,17,06,43,5.80
2009,11,17,06,44,5.70
2009,11,17,06,45,5.70
2009,11,17,06,46,5.60
2009,11,17,06,47,5.60
2009,11,17,06,48,5.60
2009,11,17,06,49,5.50
2009,11,17,06,50,5.50
2009,11,17,06,51,5.40
2009,11,17,06,52,5.40
2009,11,17,06,53,5.40
2009,11,17,06,54,5.30
2009,11,17,06,55,5.30
2009,11,17,06,56,5.30
2009,11,17,06,57,5.30
2009,11,17,06,58,5.20
2009,11,17,06,59,5.20
2009,11,17,07,00,5.20
2009,11,17,07,01,5.10
2009,11,17,07,02,5.10
2009,11,17,07,03,5.10
2009,11,17,07,04,5.10
2009,11,17,07,05,5.10
2009,11,17,07,06,5.00
2009,11,17,07,07,5.00
2009,11,17,07,08,4.90
2009,11,17,07,09,4.90
2009,11,17,07,10,4.90
2009,11,17,07,11,4.80
2009,11,17,07,12,4.80
2009,11,17,07,13,4.80
2009,11,17,07,14,4.70
2009,11,17,07,15,4.70
2009,11,17,07,16,4.70
2009,11,17,07,17,4.60
2009,11,17,07,18,4.60
2009,11,17,07,19,4.60
2009,11,17,07,20,4.50
2009,11,17,07,21,4.50
2009,11,17,07,22,4.50
2009,11,17,07,23,4.40
2009,11,17,07,24,4.40
2009,11,17,07,25,4.40
2009,11,17,07,26,4.40
2009,11,17,07,27,4.40
2009,11,17,07,28,4.40
2009,11,17,07,29,4.40
2009,11,17,07,30,4.40
2009,11,17,07,31,4.40
2009,11,17,07,32,4.40
2009,11,17,07,33,4.40
2009,11,17,07,34,4.40
2009,11,17,07,35,4.40
2009,11,17,07,36,4.40
2009,11,17,07,37,4.40
2009,11,17,07,38,4.30
2009,11,17,07,39,4.30
2009,11,17,07,40,4.30
2009,11,17,07,41,4.30
2009,11,17,07,42,4.30
2009,11,17,07,43,4.30
2009,11,17,07,44,4.30
2009,11,17,07,45,4.30
2009,11,17,07,46,4.20
2009,11,17,07,47,4.20
2009,11,17,07,48,4.20
2009,11,17,07,49,4.20
2009,11,17,07,50,4.20
2009,11,17,07,51,4.20
2009,11,17,07,52,4.20
2009,11,17,07,53,4.20
2009,11,17,07,54,4.30
2009,11,17,07,55,4.30
2009,11,17,07,56,4.30
2009,11,17,07,57,4.30
2009,11,17,07,58,4.30
2009,11,17,07,59,4.30
2009,11,17,08,00,4.30
2009,11,17,08,01,4.30
2009,11,17,08,02,4.40
2009,11,17,08,03,4.40
2009,11,17,08,04,4.50
2009,11,17,08,05,4.50
2009,11,17,08,06,4.50
2009,11,17,08,07,4.60
2009,11,17,08,08,4.60
2009,11,17,08,09,4.70
2009,11,17,08,10,4.70
2009,11,17,08,11,4.70
2009,11,17,08,12,4.80
2009,11,17,08,13,4.80
2009,11,17,08,14,4.80
2009,11,17,08,15,4.80
2009,11,17,08,16,4.80
2009,11,17,08,17,4.90
2009,11,17,08,18,4.90
2009,11,17,08,19,4.90
2009,11,17,08,20,4.90
2009,11,17,08,21,4.90
2009,11,17,08,22,5.00
2009,11,17,08,23,5.00
2009,11,17,08,24,5.00
2009,11,17,08,25,5.00
2009,11,17,08,26,5.00
2009,11,17,08,27,5.10
2009,11,17,08,28,5.10
2009,11,17,08,29,5.10
2009,11,17,08,30,5.10
2009,11,17,08,31,5.10
2009,11,17,08,32,5.10
2009,11,17,08,33,5.00
2009,11,17,08,34,5.00
2009,11,17,08,35,5.00
2009,11,17,08,36,5.00
2009,11,17,08,37,5.00
2009,11,17,08,38,5.00
2009,11,17,08,39,5.00
2009,11,17,08,40,4.90
2009,11,17,08,41,4.90
2009,11,17,08,42,4.90
2009,11,17,08,43,4.90
2009,11,17,08,44,4.90
2009,11,17,08,45,4.90
2009,11,17,08,46,4.90
2009,11,17,08,47,4.90
2009,11,17,08,48,4.80
2009,11,17,08,49,4.80
2009,11,17,08,50,4.80
2009,11,17,08,51,4.80
2009,11,17,08,52,4.80
2009,11,17,08,53,4.80
2009,11,17,08,54,4.80
2009,11,17,08,55,4.80
2009,11,17,08,56,4.80
2009,11,17,08,57,4.80
2009,11,17,08,58,4.80
2009,11,17,08,59,4.80
2009,11,17,09,00,4.80
2009,11,17,09,01,4.80
2009,11,17,09,02,4.80
2009,11,17,09,03,4.80
2009,11,17,09,04,4.80
2009,11,17,09,05,4.80
2009,11,17,09,06,4.70
2009,11,17,09,07,4.70
2009,11,17,09,08,4.70
2009,11,17,09,09,4.70
2009,11,17,09,10,4.70
2009,11,17,09,11,4.70
2009,11,17,09,12,4.70
2009,11,17,09,13,4.60
2009,11,17,09,14,4.60
2009,11,17,09,15,4.60
2009,11,17,09,16,4.60
2009,11,17,09,17,4.60
2009,11,17,09,18,4.60
2009,11,17,09,19,4.60
2009,11,17,09,20,4.60
2009,11,17,09,21,4.60
2009,11,17,09,22,4.60
2009,11,17,09,23,4.50
2009,11,17,09,24,4.50
2009,11,17,09,25,4.50
2009,11,17,09,26,4.50
2009,11,17,09,27,4.50
2009,11,17,09,28,4.50
2009,11,17,09,29,4.50
2009,11,17,09,30,4.50
2009,11,17,09,31,4.50
2009,11,17,09,32,4.40
2009,11,17,09,33,4.50
2009,11,17,09,34,4.40
2009,11,17,09,35,4.50
2009,11,17,09,36,4.50
2009,11,17,09,37,4.50
2009,11,17,09,38,4.50
2009,11,17,09,39,4.50
2009,11,17,09,40,4.60
2009,11,17,09,41,4.60
2009,11,17,09,42,4.60
2009,11,17,09,43,4.60
2009,11,17,09,44,4.60
2009,11,17,09,45,4.60
2009,11,17,09,46,4.70
2009,11,17,09,47,4.70
2009,11,17,09,48,4.70
2009,11,17,09,49,4.70
2009,11,17,09,50,4.70
2009,11,17,09,51,4.80
2009,11,17,09,52,4.80
2009,11,17,09,53,4.80
2009,11,17,09,54,4.70
2009,11,17,09,55,4.70
2009,11,17,09,56,4.60
2009,11,17,09,57,4.50
2009,11,17,09,58,4.50
2009,11,17,09,59,4.40
2009,11,17,10,00,4.40
2009,11,17,10,01,4.30
2009,11,17,10,02,4.30
2009,11,17,10,03,4.30
2009,11,17,10,04,4.20
2009,11,17,10,05,4.20
2009,11,17,10,06,4.10
2009,11,17,10,07,4.10
2009,11,17,10,08,4.00
2009,11,17,10,09,4.00
2009,11,17,10,10,3.90
2009,11,17,10,11,3.90
2009,11,17,10,12,3.90
2009,11,17,10,13,3.90
2009,11,17,10,14,3.80
2009,11,17,10,15,3.80
2009,11,17,10,16,3.80
2009,11,17,10,17,3.80
2009,11,17,10,18,3.70
2009,11,17,10,19,3.70
2009,11,17,10,20,3.70
2009,11,17,10,21,3.70
2009,11,17,10,22,3.70
2009,11,17,10,23,3.70
2009,11,17,10,24,3.70
2009,11,17,10,25,3.70
2009,11,17,10,26,3.70
2009,11,17,10,27,3.70
2009,11,17,10,28,3.70
2009,11,17,10,29,3.70
2009,11,17,10,30,3.70
2009,11,17,10,31,3.80
2009,11,17,10,32,3.80
2009,11,17,10,33,3.80
2009,11,17,10,34,3.80
2009,11,17,10,35,3.80
2009,11,17,10,36,3.80
2009,11,17,10,37,3.80
2009,11,17,10,38,3.80
2009,11,17,10,39,3.80
2009,11,17,10,40,3.90
2009,11,17,10,41,3.90
2009,11,17,10,42,3.90
2009,11,17,10,43,4.00
2009,11,17,10,44,4.00
2009,11,17,10,45,4.00
2009,11,17,10,46,4.10
2009,11,17,10,47,4.10
2009,11,17,10,48,4.10
2009,11,17,10,49,4.20
2009,11,17,10,50,4.20
2009,11,17,10,51,4.30
2009,11,17,10,52,4.30
2009,11,17,10,53,4.30
2009,11,17,10,54,4.40
2009,11,17,10,55,4.40
2009,11,17,10,56,4.50
2009,11,17,10,57,4.50
2009,11,17,10,58,4.60
2009,11,17,10,59,4.60
2009,11,17,11,00,4.70
2009,11,17,11,01,4.70
2009,11,17,11,02,4.70
2009,11,17,11,03,4.70
2009,11,17,11,04,4.80
2009,11,17,11,05,4.80
2009,11,17,11,06,4.80
2009,11,17,11,07,4.90
2009,11,17,11,08,4.90
2009,11,17,11,09,5.00
2009,11,17,11,10,5.10
2009,11,17,11,11,5.10
2009,11,17,11,12,5.20
2009,11,17,11,13,5.30
2009,11,17,11,14,5.30
2009,11,17,11,15,5.40
2009,11,17,11,16,5.40
2009,11,17,11,17,5.50
2009,11,17,11,18,5.60
2009,11,17,11,19,5.60
2009,11,17,11,20,5.70
2009,11,17,11,21,5.70
2009,11,17,11,22,5.70
2009,11,17,11,23,5.80
2009,11,17,11,24,5.80
2009,11,17,11,25,5.80
2009,11,17,11,26,5.80
2009,11,17,11,27,5.90
2009,11,17,11,28,5.90
2009,11,17,11,29,6.00
2009,11,17,11,30,6.00
2009,11,17,11,31,6.00
2009,11,17,11,32,6.00
2009,11,17,11,33,6.00
2009,11,17,11,34,6.10
2009,11,17,11,35,6.10
2009,11,17,11,36,6.10
2009,11,17,11,37,6.10
2009,11,17,11,38,6.10
2009,11,17,11,39,6.10
2009,11,17,11,40,6.10
2009,11,17,11,41,6.10
2009,11,17,11,42,6.10
2009,11,17,11,43,6.10
2009,11,17,11,44,6.20
2009,11,17,11,45,6.20
2009,11,17,11,46,6.20
2009,11,17,11,47,6.20
2009,11,17,11,48,6.30
2009,11,17,11,49,6.30
2009,11,17,11,50,6.30
2009,11,17,11,51,6.40
2009,11,17,11,52,6.40
2009,11,17,11,53,6.40
2009,11,17,11,54,6.40
2009,11,17,11,55,6.40
2009,11,17,11,56,6.40
2009,11,17,11,57,6.40
2009,11,17,11,58,6.40
2009,11,17,11,59,6.40
2009,11,17,12,00,6.40
2009,11,17,12,01,6.40
2009,11,17,12,02,6.40
2009,11,17,12,03,6.40
2009,11,17,12,04,6.40
2009,11,17,12,05,6.40
2009,11,17,12,06,6.40
2009,11,17,12,07,6.40
2009,11,17,12,08,6.40
2009,11,17,12,09,6.40
2009,11,17,12,10,6.50
2009,11,17,12,11,6.50
2009,11,17,12,12,6.50
2009,11,17,12,13,6.50
2009,11,17,12,14,6.50
2009,11,17,12,15,6.50
2009,11,17,12,16,6.60
2009,11,17,12,17,6.60
2009,11,17,12,18,6.60
2009,11,17,12,19,6.60
2009,11,17,12,20,6.60
2009,11,17,12,21,6.60
2009,11,17,12,22,6.60
2009,11,17,12,23,6.60
2009,11,17,12,24,6.60
2009,11,17,12,25,6.60
2009,11,17,12,26,6.60
2009,11,17,12,27,6.60
2009,11,17,12,28,6.60
2009,11,17,12,29,6.60
2009,11,17,12,30,6.60
2009,11,17,12,31,6.60
2009,11,17,12,32,6.60
2009,11,17,12,33,6.60
2009,11,17,12,34,6.60
2009,11,17,12,35,6.50
2009,11,17,12,36,6.50
2009,11,17,12,37,6.50
2009,11,17,12,38,6.40
2009,11,17,12,39,6.40
2009,11,17,12,40,6.40
2009,11,17,12,41,6.40
2009,11,17,12,42,6.40
2009,11,17,12,43,6.40
2009,11,17,12,44,6.40
2009,11,17,12,45,6.40
2009,11,17,12,46,6.40
2009,11,17,12,47,6.40
2009,11,17,12,48,6.40
2009,11,17,12,49,6.40
2009,11,17,12,50,6.40
2009,11,17,12,51,6.30
2009,11,17,12,52,6.30
2009,11,17,12,53,6.30
2009,11,17,12,54,6.30
2009,11,17,12,55,6.30
2009,11,17,12,56,6.30
2009,11,17,12,57,6.30
2009,11,17,12,58,6.30
2009,11,17,12,59,6.30
2009,11,17,13,00,6.30
2009,11,17,13,01,6.30
2009,11,17,13,02,6.30
2009,11,17,13,03,6.20
2009,11,17,13,04,6.20
2009,11,17,13,05,6.20
2009,11,17,13,06,6.20
2009,11,17,13,07,6.10
2009,11,17,13,08,6.10
2009,11,17,13,09,6.10
2009,11,17,13,10,6.10
2009,11,17,13,11,6.10
2009,11,17,13,12,6.10
2009,11,17,13,13,6.10
2009,11,17,13,14,6.10
2009,11,17,13,15,6.10
2009,11,17,13,16,6.10
2009,11,17,13,17,6.10
2009,11,17,13,18,6.10
2009,11,17,13,19,6.10
2009,11,17,13,20,6.10
2009,11,17,13,21,6.10
2009,11,17,13,22,6.10
2009,11,17,13,23,6.10
2009,11,17,13,24,6.10
2009,11,17,13,25,6.10
2009,11,17,13,26,6.10
2009,11,17,13,27,6.10
2009,11,17,13,28,6.10
2009,11,17,13,29,6.10
2009,11,17,13,30,6.10
2009,11,17,13,31,6.10
2009,11,17,13,32,6.10
2009,11,17,13,33,6.10
2009,11,17,13,34,6.10
2009,11,17,13,35,6.10
2009,11,17,13,36,6.10
2009,11,17,13,37,6.10
2009,11,17,13,38,6.10
2009,11,17,13,39,6.10
2009,11,17,13,40,6.10
2009,11,17,13,41,6.10
2009,11,17,13,42,6.00
2009,11,17,13,43,6.00
2009,11,17,13,44,6.00
2009,11,17,13,45,6.00
2009,11,17,13,46,5.90
2009,11,17,13,47,5.90
2009,11,17,13,48,5.90
2009,11,17,13,49,5.90
2009,11,17,13,50,5.90
2009,11,17,13,51,5.90
2009,11,17,13,52,5.90
2009,11,17,13,53,5.90
2009,11,17,13,54,5.90
2009,11,17,13,55,5.90
2009,11,17,13,56,5.90
2009,11,17,13,57,5.90
2009,11,17,13,58,5.90
2009,11,17,13,59,5.90
2009,11,17,14,00,5.90
2009,11,17,14,01,6.00
2009,11,17,14,02,6.00
2009,11,17,14,03,6.00
2009,11,17,14,04,6.00
2009,11,17,14,05,6.00
2009,11,17,14,06,6.00
2009,11,17,14,07,6.10
2009,11,17,14,08,6.10
2009,11,17,14,09,6.10
2009,11,17,14,10,6.10
2009,11,17,14,11,6.10
2009,11,17,14,12,6.20
2009,11,17,14,13,6.20
2009,11,17,14,14,6.20
2009,11,17,14,15,6.20
2009,11,17,14,16,6.20
2009,11,17,14,17,6.20
2009,11,17,14,18,6.20
2009,11,17,14,19,6.20
2009,11,17,14,20,6.20
2009,11,17,14,21,6.20
2009,11,17,14,22,6.20
2009,11,17,14,23,6.20
2009,11,17,14,24,6.20
2009,11,17,14,25,6.20
2009,11,17,14,26,6.20
2009,11,17,14,27,6.20
2009,11,17,14,28,6.20
2009,11,17,14,29,6.20
2009,11,17,14,30,6.20
2009,11,17,14,31,6.20
2009,11,17,14,32,6.20
2009,11,17,14,33,6.20
2009,11,17,14,34,6.20
2009,11,17,14,35,6.20
2009,11,17,14,36,6.20
2009,11,17,14,37,6.20
2009,11,17,14,38,6.20
2009,11,17,14,39,6.20
2009,11,17,14,40,6.20
2009,11,17,14,41,6.20
2009,11,17,14,42,6.20
2009,11,17,14,43,6.20
2009,11,17,14,44,6.20
2009,11,17,14,45,6.20
2009,11,17,14,46,6.20
2009,11,17,14,47,6.20
2009,11,17,14,48,6.20
2009,11,17,14,49,6.20
2009,11,17,14,50,6.20
2009,11,17,14,51,6.20
2009,11,17,14,52,6.20
2009,11,17,14,53,6.20
2009,11,17,14,54,6.20
2009,11,17,14,55,6.10
2009,11,17,14,56,6.10
2009,11,17,14,57,6.10
2009,11,17,14,58,6.10
2009,11,17,14,59,6.10
2009,11,17,15,00,6.10
2009,11,17,15,01,6.00
2009,11,17,15,02,6.00
2009,11,17,15,03,6.00
2009,11,17,15,04,5.90
2009,11,17,15,05,5.90
2009,11,17,15,06,5.90
2009,11,17,15,07,5.90
2009,11,17,15,08,5.90
2009,11,17,15,09,5.80
2009,11,17,15,10,5.80
2009,11,17,15,11,5.80
2009,11,17,15,12,5.80
2009,11,17,15,13,5.80
2009,11,17,15,14,5.70
2009,11,17,15,15,5.70
2009,11,17,15,16,5.70
2009,11,17,15,17,5.60
2009,11,17,15,18,5.60
2009,11,17,15,19,5.50
2009,11,17,15,20,5.40
2009,11,17,15,21,5.30
2009,11,17,15,22,5.20
2009,11,17,15,23,5.10
2009,11,17,15,24,5.00
2009,11,17,15,25,4.90
2009,11,17,15,26,4.80
2009,11,17,15,27,4.70
2009,11,17,15,28,4.60
2009,11,17,15,29,4.60
2009,11,17,15,30,4.50
2009,11,17,15,31,4.40
2009,11,17,15,32,4.30
2009,11,17,15,33,4.20
2009,11,17,15,34,4.20
2009,11,17,15,35,4.10
2009,11,17,15,36,4.00
2009,11,17,15,37,4.00
2009,11,17,15,38,3.90
2009,11,17,15,39,3.80
2009,11,17,15,40,3.80
2009,11,17,15,41,3.80
2009,11,17,15,42,3.70
2009,11,17,15,43,3.70
2009,11,17,15,44,3.60
2009,11,17,15,45,3.60
2009,11,17,15,46,3.60
2009,11,17,15,47,3.50
2009,11,17,15,48,3.50
2009,11,17,15,49,3.50
2009,11,17,15,50,3.40
2009,11,17,15,51,3.40
2009,11,17,15,52,3.40
2009,11,17,15,53,3.40
2009,11,17,15,54,3.40
2009,11,17,15,55,3.30
2009,11,17,15,56,3.30
2009,11,17,15,57,3.30
2009,11,17,15,58,3.30
2009,11,17,15,59,3.30
2009,11,17,16,00,3.30
2009,11,17,16,01,3.30
2009,11,17,16,02,3.30
2009,11,17,16,03,3.30
2009,11,17,16,04,3.20
2009,11,17,16,05,3.20
2009,11,17,16,06,3.20
2009,11,17,16,07,3.20
2009,11,17,16,08,3.20
2009,11,17,16,09,3.20
2009,11,17,16,10,3.20
2009,11,17,16,11,3.20
2009,11,17,16,12,3.10
2009,11,17,16,13,3.10
2009,11,17,16,14,3.10
2009,11,17,16,15,3.10
2009,11,17,16,16,3.10
2009,11,17,16,17,3.10
2009,11,17,16,18,3.10
2009,11,17,16,19,3.10
2009,11,17,16,20,3.10
2009,11,17,16,21,3.10
2009,11,17,16,22,3.10
2009,11,17,16,23,3.00
2009,11,17,16,24,3.00
2009,11,17,16,25,3.00
2009,11,17,16,26,3.00
2009,11,17,16,27,3.00
2009,11,17,16,28,3.00
2009,11,17,16,29,3.00
2009,11,17,16,30,3.00
2009,11,17,16,31,2.90
2009,11,17,16,32,2.90
2009,11,17,16,33,2.90
2009,11,17,16,34,2.90
2009,11,17,16,35,2.90
2009,11,17,16,36,2.90
2009,11,17,16,37,2.90
2009,11,17,16,38,2.90
2009,11,17,16,39,2.90
2009,11,17,16,40,2.90
2009,11,17,16,41,2.90
2009,11,17,16,42,2.90
2009,11,17,16,43,3.00
2009,11,17,16,44,3.00
2009,11,17,16,45,3.00
2009,11,17,16,46,3.00
2009,11,17,16,47,3.00
2009,11,17,16,48,3.00
2009,11,17,16,49,3.00
2009,11,17,16,50,3.00
2009,11,17,16,51,3.00
2009,11,17,16,52,3.00
2009,11,17,16,53,3.00
2009,11,17,16,54,2.90
2009,11,17,16,55,2.90
2009,11,17,16,56,2.90
2009,11,17,16,57,3.00
2009,11,17,16,58,3.00
2009,11,17,16,59,3.00
2009,11,17,17,00,3.00
2009,11,17,17,01,3.00
2009,11,17,17,02,3.00
2009,11,17,17,03,3.00
2009,11,17,17,04,3.00
2009,11,17,17,05,3.00
2009,11,17,17,06,3.00
2009,11,17,17,07,3.10
2009,11,17,17,08,3.10
2009,11,17,17,09,3.10
2009,11,17,17,10,3.10
2009,11,17,17,11,3.10
2009,11,17,17,12,3.10
2009,11,17,17,13,3.10
2009,11,17,17,14,3.10
2009,11,17,17,15,3.10
2009,11,17,17,16,3.10
2009,11,17,17,17,3.10
2009,11,17,17,18,3.10
2009,11,17,17,19,3.10
2009,11,17,17,20,3.10
2009,11,17,17,21,3.10
2009,11,17,17,22,3.10
2009,11,17,17,23,3.10
2009,11,17,17,24,3.10
2009,11,17,17,25,3.10
2009,11,17,17,26,3.10
2009,11,17,17,27,3.10
2009,11,17,17,28,3.10
2009,11,17,17,29,3.10
2009,11,17,17,30,3.10
2009,11,17,17,31,3.10
2009,11,17,17,32,3.10
2009,11,17,17,33,3.10
2009,11,17,17,34,3.10
2009,11,17,17,35,3.10
2009,11,17,17,36,3.10
2009,11,17,17,37,3.10
2009,11,17,17,38,3.10
2009,11,17,17,39,3.00
2009,11,17,17,40,3.00
2009,11,17,17,41,3.00
2009,11,17,17,42,3.00
2009,11,17,17,43,3.00
2009,11,17,17,44,3.10
2009,11,17,17,45,3.10
2009,11,17,17,46,3.10
2009,11,17,17,47,3.10
2009,11,17,17,48,3.10
2009,11,17,17,49,3.10
2009,11,17,17,50,3.10
2009,11,17,17,51,3.10
2009,11,17,17,52,3.10
2009,11,17,17,53,3.10
2009,11,17,17,54,3.10
2009,11,17,17,55,3.20
2009,11,17,17,56,3.20
2009,11,17,17,57,3.10
2009,11,17,17,58,3.10
2009,11,17,17,59,3.10
2009,11,17,18,00,3.10
2009,11,17,18,01,3.10
2009,11,17,18,02,3.10
2009,11,17,18,03,3.10
2009,11,17,18,04,3.10
2009,11,17,18,05,3.10
2009,11,17,18,06,3.10
2009,11,17,18,07,3.10
2009,11,17,18,08,3.10
2009,11,17,18,09,3.10
2009,11,17,18,10,3.10
2009,11,17,18,11,3.10
2009,11,17,18,12,3.00
2009,11,17,18,13,3.00
2009,11,17,18,14,3.00
2009,11,17,18,15,3.00
2009,11,17,18,16,3.00
2009,11,17,18,17,3.00
2009,11,17,18,18,3.00
2009,11,17,18,19,3.00
2009,11,17,18,20,3.00
2009,11,17,18,21,3.00
2009,11,17,18,22,2.90
2009,11,17,18,23,2.90
2009,11,17,18,24,2.90
2009,11,17,18,25,2.90
2009,11,17,18,26,2.90
2009,11,17,18,27,2.90
2009,11,17,18,28,2.90
2009,11,17,18,29,2.90
2009,11,17,18,30,2.90
2009,11,17,18,31,2.90